Showing default

OPS 3151, 9803

Orbit data source: Space-Track

OPS 3151, 9803 is a payload satellite owned by SAMSO (US) in GEO that was launched on Sun, 06 Feb 1977 UTC via a TITAN IIIC launch vehicle from the Air Force Eastern Test Range (AFETR). Payload-class satellites include a variety of spacecraft equipped with specific instruments for various scientific and technological missions. These include communications satellites like Starlink; space stations such as the ISS; scientific satellites like the Hubble; Earth observation satellites from companies like Planet Labs, Umbra, and HawkEye 360; GPS; miniature CubeSats for education and research; and military/defense satellites.

Not visible in the next 10 days
Identifier
9803, 1977-007A
Orbit
GEO
Country
Flag of USUS
Related business
Manufacturer
TRW
Mission
Spacecraft
Bus & Motor
DSP P2, MRE-4
Mass
1,040 kg wet, ~980 kg dry
Launch date (UTC)
1977-02-06 (49 years ago)
Launch vehicle
TITAN IIIC
Launch site
Air Force Eastern Test Range (AFETR)
Object type
Payload
Rocket body
Debris
Shape & HBR
Unknown
Radar Cross Section
RCS unknown

Expand to show TLE details & history
Last TLE update: 1 day ago

TLE from 1 day ago
0 OPS 3151
1 09803U 77007A   25349.99711394 -.00000009  00000-0  00000-0 0  9997
2 09803   5.1944 285.8967 0080716  32.4447 182.5414  0.97528475 22866
Epoch: 2025-12-15T23:55Z
TLE epoch observation values (Epoch: 2025-12-15T23:55:50.644Z)
Latitude
-2.97283°
Longitude
56.85508°
Altitude
36,918.914 km
Speed
3.022 km/s
True Right ascension
09h 22m 48s
True Declination
-2° 58' 12"
Sunlit
Object was in daylight at epoch
Visualization orbit readout
Latitude
Unknown
Longitude
Unknown
Altitude
Unknown
Speed
Unknown
Apparent Right ascension
Unknown
Apparent Declination
Unknown
Sunlit
N/A
Visualization observer readout
Local Sidereal Time
23:18:13
Azimuth
Unknown
Elevation
Unknown
Doppler factor
Unknown
Orbital elements
Apogee altitude
36,921.352 km
Perigee altitude
36,227.957 km
Semi-major axis
42,952.791 km
Eccentricity
0.00807
Inclination
5.1944°
RAAN
285.8967°
Arg. of periapsis
32.4447°
True anomaly
182.5008°
Mean anomaly
182.5414°
Eccentric anomaly
182.52106°
Mean motion
0.24381 °/min
Orbital period
1,476.54 mins
BSTAR
0
Loading maneuver chart data...
Computing Atmospheric mass density...
Loading historical data...
Loading historical data...
Loading historical data...
Loading historical data...
Loading historical data...
Loading historical data...
Loading historical data...
Other satellites on launch #7 in the year 1977 (1977-02-06 UTC)

Documentation

Showing up to 5 results
|